This is the latest recevied weather packets stored in our database for station/object N4BBA. If no packets are shown the sender has not sent any weather packets the latest 10 day(s).
| Time | Temp. | Humidity | Pressure | Rain* | Wind** | Luminosity | Snow |
|---|---|---|---|---|---|---|---|
| 1777509963 | 19.44° C | 85% | 1007.3 hPa | 0 mm | - | 0 W/m² | - |
| 1777509658 | 20° C | 85% | 1007.5 hPa | 0 mm | - | 0 W/m² | - |
| 1777509355 | 20° C | 85% | 1007.4 hPa | 0 mm | - | 0 W/m² | - |
| 1777509053 | 20° C | 84% | 1007.3 hPa | 0 mm | - | 0 W/m² | - |
| 1777508750 | 20° C | 84% | 1007.3 hPa | 0 mm | - | 0 W/m² | - |
| 1777508447 | 20° C | 83% | 1007.3 hPa | 0 mm | - | 0 W/m² | - |
| 1777508144 | 20° C | 83% | 1007 hPa | 0 mm | - | 0 W/m² | - |
| 1777507841 | 20° C | 82% | 1006.8 hPa | 0 mm | - | 0 W/m² | - |
| 1777507538 | 20.56° C | 81% | 1007.1 hPa | 0 mm | - | 1 W/m² | - |
| 1777507234 | 20.56° C | 81% | 1007 hPa | 0 mm | - | 2 W/m² | - |
| 1777506932 | 21.11° C | 80% | 1006.8 hPa | 0 mm | - | 5 W/m² | - |
| 1777506629 | 21.11° C | 79% | 1007 hPa | 0 mm | - | 8 W/m² | - |
| 1777506325 | 21.67° C | 78% | 1006.9 hPa | 0 mm | - | 13 W/m² | - |
| 1777506021 | 21.67° C | 77% | 1006.9 hPa | 0 mm | - | 17 W/m² | - |
| 1777505717 | 22.22° C | 76% | 1006.7 hPa | 0 mm | - | 20 W/m² | - |
| 1777505415 | 22.78° C | 74% | 1006.9 hPa | 0 mm | - | 25 W/m² | - |
| 1777505110 | 22.78° C | 73% | 1006.6 hPa | 0 mm | - | 35 W/m² | - |
| 1777504808 | 23.33° C | 72% | 1006.8 hPa | 0 mm | - | 35 W/m² | - |
| 1777504505 | 23.89° C | 71% | 1006.6 hPa | 0 mm | - | 47 W/m² | - |
| 1777504201 | 24.44° C | 68% | 1006.9 hPa | 0 mm | - | 46 W/m² | - |
| 1777503896 | 24.44° C | 67% | 1006.7 hPa | 0 mm | - | 38 W/m² | - |
| 1777503592 | 24.44° C | 66% | 1007.1 hPa | 0 mm | - | 50 W/m² | - |
| 1777503290 | 25° C | 65% | 1006.9 hPa | 0 mm | - | 31 W/m² | - |
| 1777502986 | 25.56° C | 64% | 1007 hPa | 0 mm | - | 68 W/m² | - |
| 1777502684 | 25.56° C | 64% | 1007.1 hPa | 0 mm | - | 121 W/m² | - |
* Rain latest hour (hover to see other rain measurements)
** Current wind speed in m/s (hover to see current wind gust speed)